Chicago Lansing, IL

11:12 PM CDT on April 22, 2018 (GMT -0500)
Lansing Municipal

Weather History for KIGQ - February, 2014

Change the Weather History Date:

Thursday, February 27, 2014

  Actual Average (KGYY) Record (KGYY)
Temperature  
Mean Temperature 12 °F -  
Max Temperature 19 °F 38 °F 70 °F (1976)
Min Temperature 2 °F 24 °F -3 °F (2015)
Degree Days  
Heating Degree Days 53    
Moisture  
Dew Point -8 °F    
Average Humidity 45    
Maximum Humidity 69    
Minimum Humidity 28    
Precipitation  
Precipitation 0.00 in - - ()
Sea Level Pressure  
Sea Level Pressure 30.02 in    
Wind  
Wind Speed 12 mph (NW)    
Max Wind Speed 21 mph    
Max Gust Speed 33 mph    
Visibility 10 miles    
Events Snow    
Averages and records for this station are not official NWS values.
T = Trace of Precipitation, MM = Missing Value Source: NWS Daily Summary

Daily Weather History Graph

Daily Weather History Graph

Search for Another Location

Airport or City:

Astronomy

Feb. 27, 2014 Rise Set
Actual Time 6:27 AM CST 5:38 PM CST
Civil Twilight 5:59 AM CST 6:06 PM CST
Nautical Twilight 5:27 AM CST 6:38 PM CST
Astronomical Twilight 4:55 AM CST 7:10 PM CST
Moon 5:01 AM CST (2/27) 4:02 PM CST (2/27)
Length of Visible Light 12h 06m
Length of Day
11h 10m
Waning Crescent, 4% of the Moon is Illuminated
Feb 27
Waning Crescent
Mar 1
New
Mar 8
First Quarter
Mar 16
Full
Mar 23
Last Quarter

Hourly Weather History & Observations

Time (CST) Temp. Windchill Dew Point Humidity Pressure Visibility Wind Dir Wind Speed Gust Speed Precip Events Conditions
12:15 AM 18.1 °F 3.9 °F 6.4 °F 60% 29.66 in 10.0 mi West 15.0 mph 21.9 mph N/A   Scattered Clouds
12:35 AM 19.0 °F 3.2 °F 6.6 °F 59% 29.66 in 10.0 mi West 19.6 mph 26.5 mph N/A   Scattered Clouds
12:55 AM 19.4 °F 3.2 °F 6.8 °F 58% 29.66 in 10.0 mi West 20.7 mph 27.6 mph N/A   Mostly Cloudy
1:15 AM 19.2 °F 3.8 °F 6.6 °F 58% 29.66 in 10.0 mi WNW 18.4 mph 31.1 mph N/A   Overcast
1:35 AM 19.2 °F 3.8 °F 6.3 °F 57% 29.67 in 10.0 mi West 18.4 mph 33.4 mph N/A   Overcast
1:55 AM 18.5 °F 2.0 °F 5.0 °F 56% 29.68 in 10.0 mi WNW 20.7 mph 26.5 mph N/A   Overcast
2:15 AM 16.7 °F 2.0 °F 0.5 °F 49% 29.69 in 10.0 mi WNW 15.0 mph 31.1 mph N/A   Scattered Clouds
2:35 AM 15.8 °F -0.2 °F 0.9 °F 52% 29.70 in 10.0 mi WNW 17.3 mph 31.1 mph N/A   Scattered Clouds
2:55 AM 14.9 °F 0.3 °F 0.5 °F 53% 29.71 in 10.0 mi WNW 13.8 mph 23.0 mph N/A   Scattered Clouds
3:15 AM 14.2 °F 0.0 °F -0.2 °F 53% 29.73 in 10.0 mi WNW 12.7 mph 27.6 mph N/A   Clear
3:35 AM 13.5 °F -2.1 °F -0.6 °F 54% 29.74 in 10.0 mi NW 15.0 mph 25.3 mph N/A   Clear
3:55 AM 12.4 °F -2.9 °F 3.7 °F 68% 29.76 in 10.0 mi NW 13.8 mph 21.9 mph N/A Snow Light Snow
4:15 AM 11.8 °F -4.8 °F 1.4 °F 63% 29.78 in 10.0 mi NW 16.1 mph 24.2 mph N/A   Mostly Cloudy
4:35 AM 11.3 °F -6.5 °F -2.9 °F 53% 29.81 in 10.0 mi NNW 18.4 mph 27.6 mph N/A   Scattered Clouds
4:55 AM 10.4 °F -8.6 °F -6.3 °F 47% 29.82 in 10.0 mi NW 20.7 mph 27.6 mph N/A   Scattered Clouds
5:15 AM 9.5 °F -6.6 °F -6.9 °F 48% 29.84 in 10.0 mi NW 13.8 mph 24.2 mph N/A   Clear
5:35 AM 9.3 °F -7.4 °F -8.3 °F 45% 29.86 in 10.0 mi NNW 15.0 mph 26.5 mph N/A   Clear
5:55 AM 8.6 °F -6.3 °F -8.1 °F 47% 29.87 in 10.0 mi NW 11.5 mph - N/A   Clear
6:15 AM 8.4 °F -9.7 °F -8.5 °F 46% 29.88 in 10.0 mi NW 17.3 mph 21.9 mph N/A   Clear
6:35 AM 8.1 °F -7.7 °F -9.8 °F 44% 29.90 in 10.0 mi NNW 12.7 mph 24.2 mph N/A   Clear
6:55 AM 7.7 °F -10.7 °F -8.1 °F 49% 29.92 in 10.0 mi NNW 17.3 mph 23.0 mph N/A   Scattered Clouds
7:15 AM 8.1 °F -9.0 °F -5.1 °F 55% 29.95 in 10.0 mi NNW 15.0 mph 21.9 mph N/A   Mostly Cloudy
7:35 AM 6.8 °F -9.3 °F -8.0 °F 51% 29.96 in 10.0 mi NNW 12.7 mph 18.4 mph N/A   Mostly Cloudy
7:55 AM 7.5 °F -10.3 °F -9.4 °F 46% 29.98 in 10.0 mi NNW 16.1 mph 23.0 mph N/A   Clear
8:15 AM 7.7 °F -7.4 °F -9.4 °F 46% 30.00 in 10.0 mi NW 11.5 mph 20.7 mph N/A   Scattered Clouds
8:35 AM 8.1 °F -10.2 °F -13.5 °F 37% 30.02 in 10.0 mi NNW 17.3 mph 23.0 mph N/A   Scattered Clouds
8:55 AM 7.5 °F -10.9 °F -14.3 °F 36% 30.04 in 10.0 mi NNW 17.3 mph 21.9 mph N/A   Clear
9:15 AM 7.7 °F -10.1 °F -14.4 °F 36% 30.05 in 10.0 mi NNW 16.1 mph 19.6 mph N/A   Clear
9:35 AM 7.9 °F -8.6 °F -15.2 °F 34% 30.05 in 10.0 mi NNW 13.8 mph 19.6 mph N/A   Clear
9:55 AM 8.4 °F -5.7 °F -16.1 °F 32% 30.07 in 10.0 mi North 10.4 mph 18.4 mph N/A   Clear
10:15 AM 8.8 °F -6.8 °F -15.7 °F 32% 30.08 in 10.0 mi North 12.7 mph - N/A   Clear
10:35 AM 9.0 °F -2.2 °F -14.4 °F 34% 30.09 in 10.0 mi North 6.9 mph - N/A   Clear
10:55 AM 9.3 °F -4.6 °F -14.4 °F 33% 30.10 in 10.0 mi North 10.4 mph - N/A   Clear
11:15 AM 9.9 °F -5.5 °F -14.6 °F 32% 30.11 in 10.0 mi NW 12.7 mph 20.7 mph N/A   Clear
11:35 AM 9.7 °F -3.3 °F -16.4 °F 30% 30.11 in 10.0 mi North 9.2 mph 16.1 mph N/A   Clear
11:55 AM 10.2 °F -1.7 °F -15.5 °F 30% 30.11 in 10.0 mi North 8.1 mph - N/A   Clear
12:20 PM 10.8 °F -2.0 °F -15.3 °F 30% 30.11 in 10.0 mi NW 9.2 mph - N/A   Clear
12:35 PM 10.8 °F 1.2 °F -16.4 °F 28% 30.11 in 10.0 mi WNW 5.8 mph - N/A   Clear
12:55 PM 11.3 °F -1.3 °F -15.0 °F 30% 30.11 in 10.0 mi WNW 9.2 mph - N/A   Clear
1:15 PM 10.4 °F 4.0 °F -17.3 °F 28% 30.11 in 10.0 mi WNW 3.5 mph - N/A   Clear
1:35 PM 11.8 °F 2.5 °F -14.3 °F 30% 30.11 in 10.0 mi NNW 5.8 mph - N/A   Clear
1:55 PM 11.8 °F 3.9 °F -13.9 °F 31% 30.12 in 10.0 mi North 4.6 mph - N/A   Clear
2:15 PM 12.0 °F 2.7 °F -14.6 °F 29% 30.12 in 10.0 mi WNW 5.8 mph - N/A   Clear
2:35 PM 12.2 °F 6.1 °F -13.7 °F 31% 30.12 in 10.0 mi NW 3.5 mph - N/A   Clear
2:55 PM 12.6 °F 4.8 °F -12.3 °F 32% 30.12 in 10.0 mi NW 4.6 mph 9.2 mph N/A   Clear
3:15 PM 12.2 °F 6.1 °F -14.8 °F 29% 30.13 in 10.0 mi NW 3.5 mph - N/A   Clear
3:35 PM 12.9 °F 3.8 °F -15.0 °F 28% 30.13 in 10.0 mi West 5.8 mph - N/A   Clear
3:55 PM 12.0 °F - -15.5 °F 28% 30.13 in 10.0 mi Calm Calm - N/A   Clear
4:15 PM 12.6 °F 1.1 °F -13.5 °F 30% 30.13 in 10.0 mi WNW 8.1 mph - N/A   Clear
4:35 PM 12.0 °F 2.7 °F -15.2 °F 29% 30.13 in 10.0 mi North 5.8 mph - N/A   Clear
4:55 PM 11.8 °F - -15.5 °F 28% 30.14 in 10.0 mi Calm Calm - N/A   Clear
5:15 PM 11.7 °F - -15.3 °F 29% 30.14 in 10.0 mi Calm Calm - N/A   Clear
5:35 PM 10.9 °F 2.9 °F -11.2 °F 36% 30.15 in 10.0 mi North 4.6 mph - N/A   Clear
5:55 PM 10.6 °F 4.3 °F -11.7 °F 36% 30.16 in 10.0 mi NNE 3.5 mph - N/A   Clear
6:15 PM 9.5 °F -0.3 °F -6.2 °F 49% 30.16 in 10.0 mi ENE 5.8 mph - N/A   Clear
6:35 PM 9.3 °F 1.0 °F -5.1 °F 52% 30.16 in 10.0 mi ENE 4.6 mph - N/A   Clear
6:55 PM 8.8 °F 2.2 °F -4.4 °F 55% 30.17 in 10.0 mi East 3.5 mph - N/A   Clear
7:15 PM 9.0 °F 2.4 °F -4.2 °F 55% 30.17 in 10.0 mi ESE 3.5 mph - N/A   Clear
7:35 PM 8.2 °F 1.6 °F -3.5 °F 59% 30.18 in 10.0 mi South 3.5 mph - N/A   Clear
7:55 PM 5.9 °F -3.0 °F -4.0 °F 64% 30.17 in 10.0 mi South 4.6 mph - N/A   Clear
8:15 PM 6.1 °F -0.9 °F -3.6 °F 64% 30.17 in 10.0 mi SSW 3.5 mph - N/A   Clear
8:35 PM 5.2 °F - -4.4 °F 65% 30.18 in 10.0 mi Calm Calm - N/A   Clear
8:55 PM 6.8 °F -2.0 °F -6.2 °F 55% 30.19 in 10.0 mi SW 4.6 mph - N/A   Clear
9:15 PM 6.6 °F -2.2 °F -6.9 °F 54% 30.19 in 10.0 mi West 4.6 mph - N/A   Clear
9:35 PM 6.4 °F - -9.0 °F 49% 30.19 in 10.0 mi Calm Calm - N/A   Clear
9:55 PM 6.1 °F -0.9 °F -8.1 °F 52% 30.19 in 10.0 mi West 3.5 mph - N/A   Clear
10:15 PM 5.2 °F - -8.3 °F 54% 30.19 in 10.0 mi Calm Calm - N/A   Clear
10:35 PM 5.0 °F - -7.8 °F 56% 30.19 in 10.0 mi Calm Calm - N/A   Clear
10:55 PM 5.7 °F - -8.5 °F 52% 30.19 in 10.0 mi Calm Calm - N/A   Clear
11:15 PM 5.4 °F - -7.8 °F 55% 30.19 in 10.0 mi Calm Calm - N/A   Clear
11:35 PM 5.4 °F - -7.2 °F 56% 30.20 in 10.0 mi Calm Calm - N/A   Clear
11:55 PM 2.8 °F -4.6 °F -5.3 °F 69% 30.20 in 10.0 mi South 3.5 mph - N/A   Clear